This is the latest recevied weather packets stored in our database for station/object N3FU-13. If no packets are shown the sender has not sent any weather packets the latest 10 day(s).
| Time | Temp. | Humidity | Pressure | Rain* | Wind** | Luminosity | Snow |
|---|---|---|---|---|---|---|---|
| 1777514237 | 24.44° C | 92% | 1013.4 hPa | 0 mm | - | - | - |
| 1777513337 | 24.44° C | 92% | 1013.3 hPa | 0 mm | - | - | - |
| 1777512437 | 24.44° C | 92% | 1013.3 hPa | 0 mm | - | - | - |
| 1777511537 | 24.44° C | 91% | 1013.3 hPa | 0 mm | - | - | - |
| 1777510637 | 24.44° C | 91% | 1013.1 hPa | 0 mm | - | - | - |
| 1777509737 | 25° C | 90% | 1012.7 hPa | 0 mm | - | - | - |
| 1777508837 | 25° C | 89% | 1012.5 hPa | 0 mm | - | - | - |
| 1777507937 | 25° C | 88% | 1012.3 hPa | 0 mm | - | - | - |
| 1777507037 | 25.56° C | 87% | 1012.2 hPa | 0 mm | - | - | - |
| 1777506137 | 25.56° C | 86% | 1012.3 hPa | 0 mm | - | - | - |
| 1777505237 | 26.11° C | 85% | 1012.4 hPa | 0 mm | - | - | - |
| 1777504337 | 26.67° C | 83% | 1012.3 hPa | 0 mm | - | - | - |
| 1777503437 | 27.22° C | 81% | 1012.4 hPa | 0 mm | - | - | - |
| 1777502537 | 27.22° C | 80% | 1012.3 hPa | 0 mm | - | - | - |
| 1777501870 | 27.78° C | 78% | 1012.2 hPa | 0 mm | - | - | - |
| 1777501637 | 27.78° C | 78% | 1012.2 hPa | 0 mm | - | - | - |
| 1777500737 | 28.89° C | 76% | 1012.3 hPa | 0 mm | - | - | - |
| 1777499837 | 29.44° C | 75% | 1012.4 hPa | 0 mm | - | - | - |
| 1777498937 | 29.44° C | 74% | 1012.5 hPa | 0 mm | - | - | - |
| 1777498037 | 29.44° C | 72% | 1012.5 hPa | 0 mm | - | - | - |
| 1777497137 | 30° C | 71% | 1012.6 hPa | 0 mm | - | - | - |
| 1777496237 | 30° C | 71% | 1012.9 hPa | 0 mm | - | - | - |
| 1777495338 | 30.56° C | 69% | 1013.2 hPa | 0 mm | - | - | - |
| 1777494437 | 30.56° C | 68% | 1013.4 hPa | 0 mm | - | - | - |
| 1777493538 | 31.11° C | 67% | 1013.7 hPa | 0 mm | - | - | - |
* Rain latest hour (hover to see other rain measurements)
** Current wind speed in m/s (hover to see current wind gust speed)